Flag for U.S.A. Weather past 2 weeks in Vevay, Indiana, U.S.A.

Now
74 °F

Scattered clouds.


Feels Like: 75 °F
Forecast: 65 / 83 °F
Wind: 13 mph from South

Location: Cincinnati / Northern Kentucky International Airport

Current Time: May 26, 2015 at 10:24:13 AM

Latest Report: May 26, 2015 at 9:52 AM


Visibility: 10 mi

Pressure: 30.09 "Hg

Humidity: 74%

Dew point: 65 °F

Location of VevayLocation

Historic Weather in Vevay — Graph

°F

Vevay temperature yesterday

Maximum temperature yesterday: 76 °F (at 4:52 PM)
Minimum temperature yesterday: 65 °F (at 9:52 AM)
Average temperature yesterday: 70 °F

Past Weeks' High & Low Weather Summary

 TemperatureHumidityPressure
High85 °F (May 11, 1:52 PM)97% (May 17, 4:52 AM)30.38 "Hg (May 17, 4:52 AM)
Low43 °F (May 13, 5:52 AM)29% (May 23, 4:52 PM)29.86 "Hg (May 11, 5:52 PM)
Average65 °F68%30.14 "Hg
* Reported May 11 8:52 AM — May 26 8:52 AM, Vevay, Weather by CustomWeather, © 2015

Note: Actual official high and low records may vary slightly from our data, if they occured in-between our weather recording intervals... More about our weather records

Advertising

Vevay weather history for previous 24 hours

 ConditionsComfort  
Time TempWeatherWind HumidityBarometerVisibility
8:52 AM
Tue, May 26
72 °FPartly sunny.15 mph76%30.10 "Hg10 mi
6:52 AM67 °FPassing clouds.9 mph87%30.09 "Hg10 mi
5:52 AM66 °FPassing clouds.7 mph90%30.07 "Hg10 mi
4:52 AM65 °FPassing clouds.8 mph94%30.08 "Hg10 mi
3:52 AM65 °FPassing clouds.5 mph94%30.07 "Hg10 mi
2:52 AM67 °FPassing clouds.6 mph87%30.08 "Hg10 mi
1:52 AM67 °FPartly cloudy.6 mph87%30.09 "Hg10 mi
12:52 AM68 °FPassing clouds.6 mph84%30.09 "Hg10 mi
11:52 PM
Mon, May 25
69 °FPassing clouds.6 mph84%30.11 "Hg10 mi
10:52 PM71 °FPartly cloudy.9 mph78%30.09 "Hg10 mi
9:52 PM70 °FMostly cloudy.No wind81%30.08 "Hg10 mi
8:52 PM71 °FMostly cloudy.No wind78%30.07 "Hg10 mi
7:52 PM72 °FMore clouds than sun.5 mph76%30.08 "Hg10 mi
6:52 PM73 °FMore clouds than sun.10 mph74%30.09 "Hg10 mi
5:52 PM74 °FBroken clouds.16 mph71%30.09 "Hg10 mi
4:52 PM76 °FBroken clouds.14 mph69%30.10 "Hg10 mi
3:52 PM75 °FCloudy.17 mph71%30.11 "Hg10 mi
2:52 PM72 °FOvercast.14 mph78%30.13 "Hg10 mi
1:52 PM70 °FLight rain. Mostly cloudy.13 mph81%30.14 "Hg10 mi
12:52 PM70 °FCloudy.13 mph79%30.12 "Hg10 mi
11:52 AM69 °FMore clouds than sun.13 mph84%30.12 "Hg10 mi
10:52 AM66 °FLight rain. Mostly cloudy.12 mph90%30.13 "Hg7 mi
Weather by CustomWeather, © 2015

See weather overviewHow to use our weather pages